Lubbock, TX

9:48 AM CDT on May 26, 2017 (GMT -0500)
Lubbock International

Weather History for KLBB - February, 2014

Change the Weather History Date:

Monday, February 17, 2014

  Actual Average Record
Temperature  
Mean Temperature 54 °F 45 °F  
Max Temperature 66 °F 59 °F 85 °F (1970)
Min Temperature 42 °F 31 °F 0 °F (1978)
Degree Days  
Heating Degree Days 11 20  
Month to date heating degree days 457 370  
Since 1 July heating degree days 2685 2535  
Cooling Degree Days 0 0  
Month to date cooling degree days 0 0  
Year to date cooling degree days 0 0  
Growing Degree Days 4 (Base 50)    
Moisture  
Dew Point 13 °F    
Average Humidity 24    
Maximum Humidity 39    
Minimum Humidity 8    
Precipitation  
Precipitation 0.00 in 0.03 in 3.50 in (1911)
Month to date precipitation 0.16 0.46  
Year to date precipitation 0.16 1.11  
Snow  
Snow 0.00 in 0.10 in 3.00 in (1940)
Month to date snowfall 1.8 1.2  
Since 1 July snowfall 4.2 7.0  
Snow Depth 0.00 in    
Sea Level Pressure  
Sea Level Pressure 30.05 in    
Wind  
Wind Speed 12 mph (East)    
Max Wind Speed 26 mph    
Max Gust Speed 36 mph    
Visibility 10 miles    
Events      
T = Trace of Precipitation, MM = Missing Value Source: NWS Daily Summary

Daily Weather History Graph

Daily Weather History Graph

Search for Another Location

Airport or City:

Trip Planner

Search our weather history database for the weather conditions in past years. The results will help you decide how hot, cold, wet, or windy it might be!

Date:

Astronomy

Feb. 17, 2014 Rise Set
Actual Time 7:29 AM CST 6:33 PM CST
Civil Twilight 7:04 AM CST 6:58 PM CST
Nautical Twilight 6:34 AM CST 7:28 PM CST
Astronomical Twilight 6:05 AM CST 7:57 PM CST
Moon 9:19 PM CST (2/17) 8:40 AM CST (2/17)
Length of Visible Light 11h 54m
Length of Day
11h 04m
Waning Gibbous, 93% of the Moon is Illuminated
Feb 17
Waning Gibbous
Feb 22
Last Quarter
Mar 1
New
Mar 8
First Quarter
Mar 16
Full

Hourly Weather History & Observations

Time (CST) Temp. Windchill Dew Point Humidity Pressure Visibility Wind Dir Wind Speed Gust Speed Precip Events Conditions
12:53 AM 48.9 °F - 18.0 °F 29% 29.86 in 10.0 mi West 8.1 mph - N/A   Partly Cloudy
1:53 AM 48.9 °F - 19.0 °F 31% 29.86 in 10.0 mi West 9.2 mph - N/A   Partly Cloudy
2:53 AM 46.0 °F 41.0 °F 18.0 °F 33% 29.86 in 10.0 mi West 10.4 mph - N/A   Partly Cloudy
3:53 AM 54.0 °F - 17.1 °F 23% 29.86 in 10.0 mi WNW 13.8 mph - N/A   Mostly Cloudy
4:53 AM 54.0 °F - 18.0 °F 24% 29.88 in 10.0 mi NW 11.5 mph - N/A   Mostly Cloudy
5:53 AM 54.0 °F - 19.9 °F 26% 29.93 in 10.0 mi WNW 11.5 mph - N/A   Overcast
6:53 AM 53.1 °F - 19.9 °F 27% 30.00 in 10.0 mi NNW 23.0 mph 36.8 mph N/A   Overcast
7:53 AM 50.0 °F - 23.0 °F 35% 30.07 in 10.0 mi NNE 13.8 mph - N/A   Overcast
8:53 AM 50.0 °F - 26.1 °F 39% 30.12 in 10.0 mi NE 16.1 mph - N/A   Mostly Cloudy
9:53 AM 52.0 °F - 21.9 °F 31% 30.14 in 10.0 mi NNE 20.7 mph 27.6 mph N/A   Mostly Cloudy
10:53 AM 55.9 °F - 16.0 °F 21% 30.17 in 10.0 mi NE 18.4 mph 26.5 mph N/A   Mostly Cloudy
11:53 AM 60.1 °F - 12.9 °F 16% 30.17 in 10.0 mi NE 12.7 mph - N/A   Mostly Cloudy
12:53 PM 62.1 °F - 10.0 °F 13% 30.15 in 10.0 mi East 10.4 mph - N/A   Mostly Cloudy
1:53 PM 63.0 °F - 6.1 °F 11% 30.12 in 10.0 mi East 10.4 mph - N/A   Mostly Cloudy
2:53 PM 63.0 °F - 3.9 °F 10% 30.11 in 10.0 mi East 9.2 mph 18.4 mph N/A   Mostly Cloudy
3:53 PM 64.0 °F - 1.0 °F 8% 30.09 in 10.0 mi ESE 11.5 mph - N/A   Mostly Cloudy
4:53 PM 63.0 °F - 1.0 °F 8% 30.08 in 10.0 mi ESE 12.7 mph - N/A   Mostly Cloudy
5:53 PM 59.0 °F - 3.9 °F 11% 30.09 in 10.0 mi SE 13.8 mph - N/A   Mostly Cloudy
6:53 PM 51.1 °F - 8.1 °F 18% 30.12 in 10.0 mi SSE 9.2 mph - N/A   Mostly Cloudy
7:53 PM 48.9 °F - 8.1 °F 19% 30.13 in 10.0 mi SSE 10.4 mph - N/A   Mostly Cloudy
8:53 PM 46.0 °F 41.0 °F 9.0 °F 22% 30.13 in 10.0 mi SSE 10.4 mph - N/A   Mostly Cloudy
9:53 PM 45.0 °F 40.6 °F 10.0 °F 24% 30.13 in 10.0 mi South 8.1 mph - N/A   Scattered Clouds
10:53 PM 48.9 °F - 10.9 °F 22% 30.09 in 10.0 mi South 12.7 mph - N/A   Partly Cloudy
11:53 PM 43.0 °F 38.2 °F 12.0 °F 28% 30.07 in 10.0 mi SSE 8.1 mph - N/A   Partly Cloudy